FW1161 Weather Reports


Display with metric or nautical units.
time (UTC)temp
F
wind
direction
speed
MPH
gust
MPH
rain 1hr
in
rain 24hr
in
rain mn
in
humidity
%
barometer
mb
20210307235622 36 306 1.0 5.0 0.00 0.00 0.00 43 1020.2
20210307234713 36 321 0.0 6.0 0.00 0.00 0.00 42 1020.1
20210307234038 36 311 1.0 6.0 0.00 0.00 0.00 42 1020.0
20210307233528 36 318 1.0 4.0 0.00 0.00 0.00 42 1019.9
20210307233321 36 323 1.0 3.0 0.00 0.00 0.00 42 1019.9
20210307233126 37 330 1.0 3.0 0.00 0.00 0.00 42 1019.8
20210307232457 37 309 0.0 5.0 0.00 0.00 0.00 42 1019.8
20210307231637 37 316 1.0 5.0 0.00 0.00 0.00 41 1019.6
20210307231059 37 331 1.0 6.0 0.00 0.00 0.00 41 1019.6
20210307230537 37 319 1.0 6.0 0.00 0.00 0.00 40 1019.6
20210307230134 37 311 1.0 6.0 0.00 0.00 0.00 40 1019.6
20210307225925 38 310 2.0 6.0 0.00 0.00 0.00 39 1019.6
20210307225624 38 307 2.0 7.0 0.00 0.00 0.00 39 1019.5
20210307224528 38 316 2.0 6.0 0.00 0.00 0.00 39 1019.4
20210307224042 39 17 2.0 8.0 0.00 0.00 0.00 39 1019.3
20210307223533 39 305 3.0 12.0 0.00 0.00 0.00 40 1019.3
20210307223309 39 319 3.0 12.0 0.00 0.00 0.00 39 1019.2
20210307223059 40 296 2.0 7.0 0.00 0.00 0.00 38 1019.3
20210307222515 40 313 3.0 7.0 0.00 0.00 0.00 37 1019.3
20210307221537 40 19 3.0 10.0 0.00 0.00 0.00 38 1019.2
20210307221023 40 313 4.0 10.0 0.00 0.00 0.00 38 1019.2
20210307220518 40 321 3.0 6.0 0.00 0.00 0.00 38 1019.2
20210307220028 40 287 3.0 11.0 0.00 0.00 0.00 38 1019.2
20210307215730 40 313 4.0 11.0 0.00 0.00 0.00 38 1019.2
20210307215156 40 314 2.0 8.0 0.00 0.00 0.00 38 1019.2
20210307214536 40 332 4.0 8.0 0.00 0.00 0.00 38 1019.1
20210307214037 40 324 3.0 9.0 0.00 0.00 0.00 38 1019.1
20210307213746 40 307 3.0 9.0 0.00 0.00 0.00 37 1019.0
20210307213444 40 294 3.0 13.0 0.00 0.00 0.00 38 1019.1
20210307213135 41 358 6.0 16.0 0.00 0.00 0.00 37 1019.0
20210307212354 41 310 3.0 16.0 0.00 0.00 0.00 38 1018.9
20210307211601 41 329 2.0 10.0 0.00 0.00 0.00 39 1018.9
20210307211024 41 320 4.0 10.0 0.00 0.00 0.00 39 1018.8
20210307210518 41 313 1.0 10.0 0.00 0.00 0.00 39 1018.8
20210307210109 41 358 2.0 7.0 0.00 0.00 0.00 40 1018.7
20210307205837 41 339 3.0 12.0 0.00 0.00 0.00 39 1018.8
20210307205127 41 315 4.0 9.0 0.00 0.00 0.00 40 1018.8
20210307204531 40 341 3.0 9.0 0.00 0.00 0.00 39 1018.7
20210307204019 41 308 4.0 10.0 0.00 0.00 0.00 41 1018.8
20210307203525 40 314 3.0 10.0 0.00 0.00 0.00 40 1018.8
20210307203039 40 308 2.0 10.0 0.00 0.00 0.00 40 1018.7
20210307202716 40 316 3.0 9.0 0.00 0.00 0.00 42 1018.7
20210307202158 40 326 4.0 12.0 0.00 0.00 0.00 40 1018.7
20210307201522 40 7 4.0 12.0 0.00 0.00 0.00 40 1018.8
20210307201039 40 252 3.0 11.0 0.00 0.00 0.00 40 1018.8
20210307200524 40 306 6.0 11.0 0.00 0.00 0.00 40 1018.7
20210307200204 40 335 3.0 14.0 0.00 0.00 0.00 40 1018.7
20210307200019 40 304 4.0 14.0 0.00 0.00 0.00 41 1018.7
20210307195531 40 333 4.0 13.0 0.00 0.00 0.00 40 1018.6
20210307194521 40 11 4.0 11.0 0.00 0.00 0.00 40 1018.6
20210307194020 40 307 4.0 9.0 0.00 0.00 0.00 41 1018.5
20210307193529 39 339 3.0 10.0 0.00 0.00 0.00 41 1018.5
20210307193025 39 304 3.0 10.0 0.00 0.00 0.00 40 1018.6
20210307192750 40 27 2.0 8.0 0.00 0.00 0.00 42 1018.7
20210307192107 39 358 4.0 8.0 0.00 0.00 0.00 42 1018.6
20210307191530 39 284 4.0 10.0 0.00 0.00 0.00 42 1018.6
20210307191020 39 279 5.0 10.0 0.00 0.00 0.00 41 1018.7
20210307190505 39 307 2.0 13.0 0.00 0.00 0.00 42 1018.6
20210307190026 39 311 7.0 13.0 0.00 0.00 0.00 40 1018.6
20210307185739 39 319 1.0 7.0 0.00 0.00 0.00 42 1018.6
20210307185104 39 266 2.0 12.0 0.00 0.00 0.00 45 1018.7
20210307184708 39 1 3.0 13.0 0.00 0.00 0.00 44 1018.7
20210307184103 39 318 4.0 12.0 0.00 0.00 0.00 43 1018.8
20210307183601 38 327 1.0 10.0 0.00 0.00 0.00 44 1018.7
20210307183226 38 312 4.0 10.0 0.00 0.00 0.00 44 1018.9
20210307182827 38 305 4.0 12.0 0.00 0.00 0.00 44 1018.9
20210307182437 37 332 4.0 12.0 0.00 0.00 0.00 41 1019.0
20210307181737 38 294 6.0 11.0 0.00 0.00 0.00 42 1019.0
20210307181058 38 338 2.0 9.0 0.00 0.00 0.00 44 1019.0
20210307180556 38 336 1.0 12.0 0.00 0.00 0.00 44 1019.1
20210307180202 38 313 5.0 12.0 0.00 0.00 0.00 45 1019.2
20210307175800 37 287 0.0 9.0 0.00 0.00 0.00 44 1019.2
20210307175355 37 311 2.0 12.0 0.00 0.00 0.00 44 1019.3
20210307174636 38 316 3.0 9.0 0.00 0.00 0.00 44 1019.3
20210307174145 38 312 3.0 10.0 0.00 0.00 0.00 46 1019.3
20210307173635 38 298 1.0 10.0 0.00 0.00 0.00 45 1019.3
20210307173419 37 289 3.0 7.0 0.00 0.00 0.00 44 1019.4
20210307173056 37 342 2.0 9.0 0.00 0.00 0.00 45 1019.5
20210307172702 37 352 3.0 9.0 0.00 0.00 0.00 43 1019.5
20210307171713 37 304 2.0 11.0 0.00 0.00 0.00 46 1019.6
20210307171103 37 318 4.0 11.0 0.00 0.00 0.00 46 1019.6
20210307170604 36 304 3.0 12.0 0.00 0.00 0.00 47 1019.7
20210307170318 36 322 6.0 15.0 0.00 0.00 0.00 47 1019.7
20210307170054 36 310 4.0 15.0 0.00 0.00 0.00 48 1019.8
20210307165713 36 290 3.0 10.0 0.00 0.00 0.00 50 1019.8
20210307164700 36 344 4.0 10.0 0.00 0.00 0.00 50 1019.8
20210307164048 36 330 4.0 9.0 0.00 0.00 0.00 52 1019.9
20210307163552 35 293 2.0 9.0 0.00 0.00 0.00 50 1020.0
20210307163146 36 297 4.0 11.0 0.00 0.00 0.00 49 1020.1
20210307162844 36 304 4.0 11.0 0.00 0.00 0.00 49 1020.1
20210307162403 35 358 1.0 8.0 0.00 0.00 0.00 53 1020.1
20210307161743 35 307 5.0 10.0 0.00 0.00 0.00 52 1020.2
20210307161102 35 292 3.0 9.0 0.00 0.00 0.00 52 1020.3
20210307160544 35 308 6.0 9.0 0.00 0.00 0.00 53 1020.3
20210307160228 35 349 1.0 8.0 0.00 0.00 0.00 55 1020.3
20210307155952 35 290 5.0 9.0 0.00 0.00 0.00 52 1020.3
20210307155229 35 319 0.0 9.0 0.00 0.00 0.00 53 1020.4
20210307154617 35 348 3.0 9.0 0.00 0.00 0.00 54 1020.4
20210307154043 34 318 4.0 12.0 0.00 0.00 0.00 53 1020.4
20210307153543 34 352 2.0 11.0 0.00 0.00 0.00 54 1020.4
20210307153217 34 294 3.0 6.0 0.00 0.00 0.00 53 1020.4
20210307152823 34 294 2.0 8.0 0.00 0.00 0.00 54 1020.4
20210307152359 34 20 3.0 7.0 0.00 0.00 0.00 57 1020.3
20210307151632 33 290 1.0 7.0 0.00 0.00 0.00 55 1020.3
20210307151052 34 337 2.0 6.0 0.00 0.00 0.00 55 1020.3
20210307150543 33 348 3.0 6.0 0.00 0.00 0.00 55 1020.3
20210307150146 34 332 0.0 6.0 0.00 0.00 0.00 56 1020.4
20210307145808 33 12 2.0 5.0 0.00 0.00 0.00 56 1020.3
20210307144701 33 318 1.0 6.0 0.00 0.00 0.00 56 1020.2
20210307144048 33 307 3.0 6.0 0.00 0.00 0.00 57 1020.2
20210307143537 33 315 1.0 6.0 0.00 0.00 0.00 58 1020.2
20210307143103 32 339 1.0 4.0 0.00 0.00 0.00 60 1020.2
20210307142901 32 297 0.0 6.0 0.00 0.00 0.00 58 1020.2
20210307142313 32 351 1.0 7.0 0.00 0.00 0.00 59 1020.1
20210307141607 32 35 0.0 4.0 0.00 0.00 0.00 58 1020.1
20210307141041 32 349 1.0 4.0 0.00 0.00 0.00 59 1020.1
20210307140537 31 302 1.0 3.0 0.00 0.00 0.00 59 1020.2
20210307140124 31 317 1.0 4.0 0.00 0.00 0.00 59 1020.2
20210307135851 31 26 1.0 5.0 0.00 0.00 0.00 61 1020.3
20210307135339 31 60 1.0 5.0 0.00 0.00 0.00 61 1020.1
20210307134603 30 316 1.0 7.0 0.00 0.00 0.00 62 1020.1
20210307134037 30 309 1.0 7.0 0.00 0.00 0.00 62 1020.1
20210307133529 30 80 1.0 9.0 0.00 0.00 0.00 63 1020.1
20210307133151 30 351 2.0 9.0 0.00 0.00 0.00 61 1020.0
20210307132950 30 36 1.0 5.0 0.00 0.00 0.00 62 1020.1
20210307132425 30 346 1.0 4.0 0.00 0.00 0.00 63 1020.1
20210307131612 29 353 1.0 6.0 0.00 0.00 0.00 63 1020.1
20210307131041 29 52 1.0 6.0 0.00 0.00 0.00 64 1020.0
20210307130535 29 332 1.0 3.0 0.00 0.00 0.00 64 1019.9
20210307130219 29 318 0.0 2.0 0.00 0.00 0.00 66 1019.8
20210307125956 28 337 0.0 2.0 0.00 0.00 0.00 69 1019.7
20210307125449 28 320 0.0 1.0 0.00 0.00 0.00 71 1019.7
20210307124543 27 313 0.0 1.0 0.00 0.00 0.00 72 1019.7
20210307124026 26 294 0.0 1.0 0.00 0.00 0.00 75 1019.6
20210307123534 26 286 0.0 0.0 0.00 0.00 0.00 76 1019.6
20210307123111 25 286 0.0 0.0 0.00 0.00 0.00 76 1019.5
20210307122926 25 286 0.0 0.0 0.00 0.00 0.00 77 1019.5
20210307122426 24 286 0.0 0.0 0.00 0.00 0.00 77 1019.5
20210307121546 24 286 0.0 0.0 0.00 0.00 0.00 77 1019.5
20210307121025 24 285 0.0 0.0 0.00 0.00 0.00 78 1019.5
20210307120539 23 286 0.0 0.0 0.00 0.00 0.00 76 1019.4
20210307120100 23 285 0.0 0.0 0.00 0.00 0.00 75 1019.4
20210307115842 24 285 0.0 0.0 0.00 0.00 0.00 74 1019.2
20210307115424 24 286 0.0 0.0 0.00 0.00 0.00 74 1019.2
20210307114534 24 286 0.0 0.0 0.00 0.00 0.00 74 1019.2
20210307114038 24 286 0.0 0.0 0.00 0.00 0.00 73 1019.1
20210307113529 24 341 0.0 0.0 0.00 0.00 0.00 73 1019.1
20210307113202 24 341 0.0 0.0 0.00 0.00 0.00 73 1019.0
20210307112952 25 341 0.0 0.0 0.00 0.00 0.00 72 1018.9
20210307112543 25 341 0.0 0.0 0.00 0.00 0.00 72 1018.9
20210307111543 25 341 0.0 0.0 0.00 0.00 0.00 71 1018.8
20210307111031 25 347 0.0 1.0 0.00 0.00 0.00 71 1018.7
20210307110619 25 346 0.0 1.0 0.00 0.00 0.00 72 1018.7
20210307110344 25 344 0.0 1.0 0.00 0.00 0.00 74 1018.6
20210307110125 24 280 0.0 0.0 0.00 0.00 0.00 76 1018.5
20210307105552 24 280 0.0 0.0 0.00 0.00 0.00 76 1018.4
20210307104537 23 280 0.0 0.0 0.00 0.00 0.00 75 1018.3
20210307104021 23 280 0.0 0.0 0.00 0.00 0.00 75 1018.3
20210307103622 24 280 0.0 0.0 0.00 0.00 0.00 75 1018.3
20210307103056 24 280 0.0 0.0 0.00 0.00 0.00 76 1018.2
20210307102859 24 280 0.0 0.0 0.00 0.00 0.00 77 1018.2
20210307102218 23 280 0.0 0.0 0.00 0.00 0.00 75 1018.2
20210307101526 24 280 0.0 0.0 0.00 0.00 0.00 74 1018.2
20210307101024 24 280 0.0 0.0 0.00 0.00 0.00 74 1018.1
20210307100515 24 280 0.0 0.0 0.00 0.00 0.00 75 1018.0
20210307100339 24 280 0.0 0.0 0.00 0.00 0.00 75 1018.0
20210307100051 24 280 0.0 0.0 0.00 0.00 0.00 75 1017.9
20210307095854 24 280 0.0 0.0 0.00 0.00 0.00 74 1017.9
20210307095058 25 280 0.0 0.0 0.00 0.00 0.00 74 1017.8
20210307094116 25 280 0.0 0.0 0.00 0.00 0.00 73 1017.8
20210307093606 25 280 0.0 0.0 0.00 0.00 0.00 73 1017.8
20210307093232 25 280 0.0 0.0 0.00 0.00 0.00 74 1017.7
20210307092834 25 280 0.0 0.0 0.00 0.00 0.00 73 1017.7
20210307092318 26 280 0.0 0.0 0.00 0.00 0.00 74 1017.6
20210307091620 26 280 0.0 0.0 0.00 0.00 0.00 74 1017.5
20210307091114 25 280 0.0 0.0 0.00 0.00 0.00 75 1017.5
20210307090559 25 280 0.0 0.0 0.00 0.00 0.00 74 1017.4
20210307090208 25 280 0.0 0.0 0.00 0.00 0.00 75 1017.3
20210307085915 25 280 0.0 0.0 0.00 0.00 0.00 73 1017.2
20210307085540 26 280 0.0 0.0 0.00 0.00 0.00 73 1017.1
20210307084641 26 280 0.0 0.0 0.00 0.00 0.00 73 1017.1
20210307084050 26 280 0.0 0.0 0.00 0.00 0.00 73 1017.1
20210307083551 26 280 0.0 0.0 0.00 0.00 0.00 74 1017.0
20210307083200 25 280 0.0 0.0 0.00 0.00 0.00 74 1017.0
20210307082912 25 280 0.0 0.0 0.00 0.00 0.00 73 1017.1
20210307082528 25 280 0.0 0.0 0.00 0.00 0.00 72 1017.0
20210307081647 25 280 0.0 0.0 0.00 0.00 0.00 72 1016.9
20210307081127 25 280 0.0 0.0 0.00 0.00 0.00 71 1016.8
20210307080608 26 280 0.0 0.0 0.00 0.00 0.00 71 1016.8
20210307080118 26 280 0.0 0.0 0.00 0.00 0.00 71 1016.8
20210307075809 26 280 0.0 0.0 0.00 0.00 0.00 70 1016.8
20210307075312 26 280 0.0 0.0 0.00 0.00 0.00 69 1016.8
20210307074649 26 280 0.0 0.0 0.00 0.00 0.00 69 1016.8
20210307074047 26 280 0.0 0.0 0.00 0.00 0.00 67 1016.8
20210307073558 27 280 0.0 0.0 0.00 0.00 0.00 66 1016.8
20210307073129 27 280 0.0 0.0 0.00 0.00 0.00 66 1016.9
20210307072826 27 280 0.0 0.0 0.00 0.00 0.00 67 1016.9
20210307072244 27 280 0.0 0.0 0.00 0.00 0.00 65 1016.9
20210307071554 28 280 0.0 0.0 0.00 0.00 0.00 63 1016.9
20210307071028 28 280 0.0 0.0 0.00 0.00 0.00 62 1016.9
20210307070529 29 280 0.0 0.0 0.00 0.00 0.00 62 1016.9
20210307070143 29 280 0.0 0.0 0.00 0.00 0.00 62 1016.8
20210307065809 29 280 0.0 0.0 0.00 0.00 0.00 61 1016.8
20210307065434 29 280 0.0 0.0 0.00 0.00 0.00 60 1016.9
20210307064633 29 280 0.0 0.0 0.00 0.00 0.00 60 1016.9
20210307064041 30 280 0.0 0.0 0.00 0.00 0.00 60 1016.9
20210307063540 30 280 0.0 0.0 0.00 0.00 0.00 60 1017.0
20210307063117 30 280 0.0 1.0 0.00 0.00 0.00 60 1016.9
20210307062752 29 280 0.0 1.0 0.00 0.00 0.00 60 1016.9
20210307062231 29 280 0.0 1.0 0.00 0.00 0.00 62 1016.8
20210307061609 29 341 0.0 0.0 0.00 0.00 0.00 62 1016.8
20210307061027 29 341 0.0 0.0 0.00 0.00 0.00 62 1016.8
20210307060537 29 341 0.0 0.0 0.00 0.00 0.00 62 1016.7
20210307060107 28 341 0.0 0.0 0.00 0.00 0.00 62 1016.6
20210307055857 28 341 0.0 0.0 0.00 0.00 0.00 61 1016.6
20210307055130 28 341 0.0 0.0 0.00 0.00 0.00 60 1016.5
20210307054547 28 341 0.0 0.0 0.00 0.00 0.00 59 1016.5
20210307054029 29 341 0.0 0.0 0.00 0.00 0.00 59 1016.4
20210307053520 29 341 0.0 0.0 0.00 0.00 0.00 58 1016.4
20210307053057 29 341 0.0 0.0 0.00 0.00 0.00 58 1016.4
20210307052822 29 341 0.0 0.0 0.00 0.00 0.00 58 1016.3
20210307052103 30 341 0.0 0.0 0.00 0.00 0.00 57 1016.3
20210307051530 30 341 0.0 0.0 0.00 0.00 0.00 57 1016.2
20210307051036 30 341 0.0 0.0 0.00 0.00 0.00 56 1016.1
20210307050524 30 341 0.0 0.0 0.00 0.00 0.00 56 1016.1
20210307050059 31 341 0.0 0.0 0.00 0.00 0.00 56 1016.0
20210307045729 31 341 0.0 1.0 0.00 0.00 0.00 56 1016.0
20210307045109 31 342 0.0 1.0 0.00 0.00 0.00 55 1016.1
20210307044535 31 342 0.0 2.0 0.00 0.00 0.00 55 1016.1
20210307044033 31 342 0.0 2.0 0.00 0.00 0.00 55 1016.0
20210307043522 31 341 0.0 1.0 0.00 0.00 0.00 56 1016.0
20210307043031 31 341 0.0 0.0 0.00 0.00 0.00 56 1016.0
20210307042844 31 341 0.0 0.0 0.00 0.00 0.00 56 1015.9
20210307042243 31 341 0.0 1.0 0.00 0.00 0.00 56 1015.9
20210307041549 31 341 0.0 1.0 0.00 0.00 0.00 55 1015.9
20210307041033 31 341 0.0 1.0 0.00 0.00 0.00 55 1015.9
20210307040527 31 341 0.0 1.0 0.00 0.00 0.00 56 1015.9
20210307040056 31 341 0.0 2.0 0.00 0.00 0.00 55 1015.9
20210307035906 31 342 0.0 2.0 0.00 0.00 0.00 56 1015.8
20210307035322 31 328 0.0 0.0 0.00 0.00 0.00 56 1015.8
20210307034526 31 328 0.0 1.0 0.00 0.00 0.00 56 1015.8
20210307034024 31 328 0.0 1.0 0.00 0.00 0.00 55 1015.7
20210307033527 31 328 0.0 1.0 0.00 0.00 0.00 55 1015.7
20210307033217 31 328 0.0 2.0 0.00 0.00 0.00 56 1015.7
20210307033038 31 328 0.0 1.0 0.00 0.00 0.00 55 1015.6
20210307032241 32 318 0.0 1.0 0.00 0.00 0.00 55 1015.6
20210307031535 32 346 0.0 2.0 0.00 0.00 0.00 55 1015.5
20210307031044 32 351 0.0 3.0 0.00 0.00 0.00 55 1015.6
20210307030528 32 17 1.0 3.0 0.00 0.00 0.00 55 1015.5
20210307030054 32 354 0.0 3.0 0.00 0.00 0.00 55 1015.4
20210307025908 32 5 1.0 4.0 0.00 0.00 0.00 54 1015.4
20210307025402 32 358 0.0 4.0 0.00 0.00 0.00 54 1015.4
20210307024544 32 341 0.0 2.0 0.00 0.00 0.00 54 1015.4
20210307024038 32 348 0.0 2.0 0.00 0.00 0.00 54 1015.3
20210307023516 32 327 0.0 2.0 0.00 0.00 0.00 54 1015.3
20210307023155 32 340 0.0 2.0 0.00 0.00 0.00 53 1015.3
20210307023035 32 339 0.0 2.0 0.00 0.00 0.00 53 1015.3
20210307022348 32 342 0.0 3.0 0.00 0.00 0.00 53 1015.2
20210307021936 33 350 0.0 3.0 0.00 0.00 0.00 53 1015.2
20210307021117 33 342 0.0 1.0 0.00 0.00 0.00 53 1015.1
20210307020630 33 346 0.0 2.0 0.00 0.00 0.00 53 1015.1
20210307020405 33 337 0.0 3.0 0.00 0.00 0.00 53 1015.1
20210307020034 33 32 0.0 3.0 0.00 0.00 0.00 54 1015.1
20210307015621 33 320 0.0 1.0 0.00 0.00 0.00 54 1015.0
20210307014733 33 318 0.0 3.0 0.00 0.00 0.00 53 1014.9
20210307014059 33 319 0.0 3.0 0.00 0.00 0.00 53 1014.9
20210307013605 34 312 0.0 2.0 0.00 0.00 0.00 53 1014.8
20210307013311 34 312 0.0 3.0 0.00 0.00 0.00 53 1014.8
20210307012750 34 344 1.0 3.0 0.00 0.00 0.00 53 1014.7
20210307012201 34 317 0.0 3.0 0.00 0.00 0.00 54 1014.6
20210307011642 34 334 0.0 3.0 0.00 0.00 0.00 55 1014.6
20210307011120 34 326 0.0 2.0 0.00 0.00 0.00 55 1014.7
20210307010607 34 322 0.0 1.0 0.00 0.00 0.00 55 1014.6
20210307010254 34 322 0.0 1.0 0.00 0.00 0.00 55 1014.6
20210307005847 34 322 0.0 1.0 0.00 0.00 0.00 54 1014.6
20210307005539 34 322 0.0 1.0 0.00 0.00 0.00 54 1014.5
20210307004631 34 322 0.0 2.0 0.00 0.00 0.00 55 1014.5
20210307004054 34 322 0.0 2.0 0.00 0.00 0.00 54 1014.5
20210307003557 34 314 0.0 2.0 0.00 0.00 0.00 54 1014.5
20210307003135 34 318 0.0 5.0 0.00 0.00 0.00 54 1014.4
20210307002840 34 289 2.0 5.0 0.00 0.00 0.00 53 1014.4
20210307002543 34 308 1.0 4.0 0.00 0.00 0.00 54 1014.4
20210307001712 34 296 0.0 4.0 0.00 0.00 0.00 53 1014.3
20210307001136 34 322 1.0 6.0 0.00 0.00 0.00 54 1014.2
20210307000713 34 330 1.0 7.0 0.00 0.00 0.00 53 1014.2
20210307000348 34 305 3.0 7.0 0.00 0.00 0.00 53 1014.1
20210307000038 34 304 2.0 7.0 0.00 0.00 0.00 54 1014.0